Location: Namasale
(1.5000°N, 32.6167°E)
Time: 02:02:48
(UTC+00:00)

Hubble Space Telescope - Pass Details

Date: 07 December 2021
Orbit: 535 x 538 km, 28.5° (Epoch: 24 January)

Event Time Altitude Azimuth Distance (km) Brightness Sun altitude
Rises 16:35:15 0° 238° (WSW) 2,673 6.2 -13.0°
Reaches altitude 10° 16:37:31 10° 237° (WSW) 1,781 4.8 -13.6°
Maximum altitude 16:41:38 80° 150° (SSE) 543 0.7 -14.5°
Enters shadow 16:43:47 27° 65° (ENE) 1,039 1.6 -15.0°
